Location: Unspecified
(54.1780°N, 0.0000°E)
Time: 09:33:54
(UTC+00:00)

S-56A Canister/Altair - Pass Details

Date: 22 June 2019
Orbit: 632 x 2500 km, 38.9° (Epoch: 17 July)

Event Time Altitude Azimuth Distance (km) Brightness Sun altitude
Rises 15:36:06 0° 217° (SW) 5,070 12.3 39.9°
Reaches altitude 10° 15:41:11 10° 201° (SSW) 3,679 11.5 39.2°
Maximum altitude 15:46:31 17° 164° (SSE) 2,712 10.5 38.4°
Drops below altitude 10° 15:50:49 10° 126° (SE) 2,863 10.2 37.8°
Sets 15:54:04 0° 106° (ESE) 3,546 10.5 37.4°
